CZ-4C R/B, 39261

Orbit data source: Space-Track

CZ-4C R/B, 39261 is space debris in SSO originally from a launch on Mon, 23 Sep 2013 UTC launched from the Taiyaun Space Center, China (TSC). Debris objects in space refer to the collection of defunct objects orbiting the Earth. Examples of debris include non-operational satellites, rocket bodies, and fragments generated from explosions, collisions, or faulty payload assembly.

Loading next visibility...
Identifier
39261, 2013-052B
Orbit
SSO
Country
Flag of CNCN / PRC
Related business
Manufacturer
SAST
Mission
Spacecraft
Bus & Motor
CZ-4 STAGE 3, Unknown motor
Mass
~1,000 kg wet, ~1,000 kg dry
Launch date (UTC)
2013-09-23 (13 years ago)
Launch vehicle
Unknown
Launch site
Taiyaun Space Center, China (TSC)
Object type
Payload
Rocket body
Debris
Shape & HBR
Cyl, 2.5 m
Radar Cross Section
20.385 m², Large (>1 m²)

Expand to show TLE details & history
Last TLE update: 2 days ago

TLE from 2 days ago
0 CZ-4C R/B
1 39261U 13052B   26171.44353918  .00000046  00000-0  32824-4 0  9999
2 39261  98.8385  59.7272 0032631  85.3984 275.0926 14.33959370666180
Epoch: 2026-06-20T10:38Z
TLE epoch observation values (Epoch: 2026-06-20T10:38:41.785Z)
Latitude
0.00002°
Longitude
-8.60499°
Altitude
779.458 km
Speed
7.465 km/s
True Right ascension
03h 58m 54s
True Declination
0° 00' 00"
Sunlit
Object was in daylight at epoch
Visualization orbit readout
Latitude
Unknown
Longitude
Unknown
Altitude
Unknown
Speed
Unknown
Apparent Right ascension
Unknown
Apparent Declination
Unknown
Sunlit
N/A
Visualization observer readout
Local Sidereal Time
23:08:04
Azimuth
Unknown
Elevation
Unknown
Doppler factor
Unknown
Orbital elements
Apogee altitude
799.016 km
Perigee altitude
752.329 km
Semi-major axis
7,153.81 km
Eccentricity
0.00326
Inclination
98.8385°
RAAN
59.7272°
Arg. of periapsis
85.3984°
True anomaly
274.72002°
Mean anomaly
275.0926°
Eccentric anomaly
274.90632°
Mean motion
3.58705 °/min
Orbital period
100.36 mins
BSTAR
0.000032824
Loading maneuver chart data...
Computing Atmospheric mass density...
Loading historical data...
Loading historical data...
Loading historical data...
Loading historical data...
Loading historical data...
Loading historical data...
Loading historical data...
Other satellites on launch #52 in the year 2013 (2013-09-23 UTC)

Documentation

Showing up to 5 results
|